Showing default

ICEYE-X63, 67372

Orbit data source: Space-Track

ICEYE-X63, 67372 is a payload satellite owned by ICEYE (FI) in SSO that was launched on Sun, 11 Jan 2026 UTC via an FALCON 9 launch vehicle from the Air Force Western Test Range (AFWTR). Payload-class satellites include a variety of spacecraft equipped with specific instruments for various scientific and technological missions. These include communications satellites like Starlink; space stations such as the ISS; scientific satellites like the Hubble; Earth observation satellites from companies like Planet Labs, Umbra, and HawkEye 360; GPS; miniature CubeSats for education and research; and military/defense satellites.

Loading next visibility...
Identifier
67372, 2026-004K
Orbit
SSO
Country
Flag of FIFI / FIN
Related business
Manufacturer
ICEYE
Mission
Operational spacecraft
Bus & Motor
ICEYE, Unknown motor
Mass
120 kg wet, 120 kg dry
Launch date (UTC)
2026-01-11 (3 months ago)
Launch vehicle
FALCON 9
Launch site
Air Force Western Test Range (AFWTR)
Object type
Payload
Rocket body
Debris
Shape & HBR
Unknown shape, 2.4 m
Radar Cross Section
RCS unknown

Expand to show TLE details & history
Last TLE update: 7 hours ago

TLE from 7 hours ago
0 ICEYE-X63
1 67372U 26004K   26095.26590261  .00003428  00000-0  37794-3 0  9990
2 67372  97.8006  95.0562 0004821  30.1644 329.9850 14.88155077 12451
Epoch: 2026-04-05T06:22Z
TLE epoch observation values (Epoch: 2026-04-05T06:22:53.985Z)
Latitude
0.00003°
Longitude
165.75746°
Altitude
603.821 km
Speed
7.559 km/s
True Right ascension
06h 20m 13s
True Declination
0° 00' 00"
Sunlit
Object was in daylight at epoch
Visualization orbit readout
Latitude
Unknown
Longitude
Unknown
Altitude
Unknown
Speed
Unknown
Apparent Right ascension
Unknown
Apparent Declination
Unknown
Sunlit
N/A
Visualization observer readout
Local Sidereal Time
19:17:52
Azimuth
Unknown
Elevation
Unknown
Doppler factor
Unknown
Orbital elements
Apogee altitude
604.09 km
Perigee altitude
597.361 km
Semi-major axis
6,978.863 km
Eccentricity
0.00048
Inclination
97.8006°
RAAN
95.0562°
Arg. of periapsis
30.1644°
True anomaly
329.95735°
Mean anomaly
329.985°
Eccentric anomaly
329.97118°
Mean motion
3.72277 °/min
Orbital period
96.7 mins
BSTAR
0.00037794
Loading maneuver chart data...
Computing Atmospheric mass density...
Loading historical data...
Loading historical data...
Loading historical data...
Loading historical data...
Loading historical data...
Loading historical data...
Loading historical data...

Documentation

Showing up to 5 results
|